| time (UTC) | temp C | wind direction | speed KPH | gust KPH | rain 1hr cm | rain 24hr cm | rain mn cm | humidity % | barometer mb |
| 20260502231802 | 6 | 350 | 9.7 | 0.0 | 0.00 | 0.00 | 0.00 | 87 | 1022.0 |
| 20260502230302 | 6 | 350 | 9.7 | 0.0 | 0.00 | 0.00 | 0.00 | 87 | 1022.0 |
| 20260502224802 | 6 | 350 | 12.9 | 0.0 | 0.00 | 0.00 | 0.00 | 93 | 1022.0 |
| 20260502223301 | 6 | 350 | 12.9 | 0.0 | 0.00 | 0.00 | 0.00 | 93 | 1022.0 |
| 20260502221802 | 6 | 330 | 8.0 | 0.0 | 0.00 | 0.00 | 0.00 | 93 | 1023.0 |
| 20260502220302 | 6 | 330 | 8.0 | 0.0 | 0.00 | 0.00 | 0.00 | 93 | 1023.0 |
| 20260502214802 | 6 | 310 | 8.0 | 0.0 | 0.00 | 0.00 | 0.00 | 93 | 1023.0 |
| 20260502213302 | 6 | 310 | 8.0 | 0.0 | 0.00 | 0.00 | 0.00 | 93 | 1023.0 |
| 20260502211802 | 6 | 300 | 4.8 | 0.0 | 0.00 | 0.00 | 0.00 | 93 | 1023.0 |
| 20260502210301 | 6 | 300 | 4.8 | 0.0 | 0.00 | 0.00 | 0.00 | 93 | 1023.0 |
| 20260502204802 | 6 | 280 | 9.7 | 0.0 | 0.00 | 0.00 | 0.00 | 93 | 1023.0 |
| 20260502203302 | 6 | 280 | 9.7 | 0.0 | 0.00 | 0.00 | 0.00 | 93 | 1023.0 |
| 20260502201802 | 6 | 250 | 3.2 | 0.0 | 0.00 | 0.00 | 0.00 | 93 | 1023.0 |
| 20260502200302 | 6 | 250 | 3.2 | 0.0 | 0.00 | 0.00 | 0.00 | 93 | 1023.0 |
| 20260502194802 | 7 | 210 | 3.2 | 0.0 | 0.00 | 0.00 | 0.00 | 87 | 1023.0 |
| 20260502193302 | 7 | 210 | 3.2 | 0.0 | 0.00 | 0.00 | 0.00 | 87 | 1023.0 |
| 20260502191802 | 7 | 170 | 8.0 | 0.0 | 0.00 | 0.00 | 0.00 | 87 | 1023.0 |
| 20260502190302 | 7 | 170 | 8.0 | 0.0 | 0.00 | 0.00 | 0.00 | 87 | 1023.0 |
| 20260502184802 | 7 | 90 | 4.8 | 0.0 | 0.00 | 0.00 | 0.00 | 87 | 1022.0 |
| 20260502183302 | 7 | 90 | 4.8 | 0.0 | 0.00 | 0.00 | 0.00 | 87 | 1022.0 |
| 20260502181802 | 7 | 80 | 9.7 | 0.0 | 0.00 | 0.00 | 0.00 | 82 | 1022.0 |
| 20260502180302 | 7 | 80 | 9.7 | 0.0 | 0.00 | 0.00 | 0.00 | 82 | 1022.0 |
| 20260502170302 | 10 | 360 | 11.3 | 0.0 | 0.00 | 0.00 | 0.00 | 71 | 1021.0 |
| 20260502163302 | 11 | 20 | 14.5 | 0.0 | 0.00 | 0.00 | 0.00 | 50 | 1021.0 |
| 20260502161802 | 12 | 20 | 16.1 | 0.0 | 0.00 | 0.00 | 0.00 | 44 | 1021.0 |
| 20260502160302 | 12 | 20 | 16.1 | 0.0 | 0.00 | 0.00 | 0.00 | 44 | 1021.0 |
| 20260502151802 | 12 | 40 | 20.9 | 0.0 | 0.00 | 0.00 | 0.00 | 51 | 1022.0 |
| 20260502150301 | 12 | 40 | 20.9 | 0.0 | 0.00 | 0.00 | 0.00 | 51 | 1022.0 |
| 20260502130302 | 12 | 70 | 14.5 | 0.0 | 0.00 | 0.00 | 0.00 | 63 | 1022.0 |
| 20260502123302 | 12 | 60 | 16.1 | 0.0 | 0.00 | 0.00 | 0.00 | 58 | 1022.0 |
| 20260502121802 | 11 | 110 | 17.7 | 0.0 | 0.00 | 0.00 | 0.00 | 62 | 1023.0 |
| 20260502120309 | 11 | 110 | 17.7 | 0.0 | 0.00 | 0.00 | 0.00 | 62 | 1023.0 |
| 20260502114802 | 10 | 100 | 32.2 | 0.0 | 0.00 | 0.00 | 0.00 | 62 | 1023.0 |
| 20260502113301 | 10 | 100 | 32.2 | 0.0 | 0.00 | 0.00 | 0.00 | 62 | 1023.0 |
| 20260502111802 | 12 | 80 | 12.9 | 0.0 | 0.00 | 0.00 | 0.00 | 67 | 1023.0 |
| 20260502110302 | 12 | 80 | 12.9 | 0.0 | 0.00 | 0.00 | 0.00 | 67 | 1023.0 |
| 20260502104802 | 10 | 10 | 17.7 | 0.0 | 0.00 | 0.00 | 0.00 | 76 | 1023.0 |
| 20260502103302 | 10 | 10 | 17.7 | 0.0 | 0.00 | 0.00 | 0.00 | 76 | 1023.0 |
| 20260502100302 | 12 | 80 | 17.7 | 0.0 | 0.00 | 0.00 | 0.00 | 58 | 1023.0 |
| 20260502090302 | 13 | 90 | 17.7 | 0.0 | 0.00 | 0.00 | 0.00 | 51 | 1023.0 |
| 20260502070303 | 12 | 60 | 12.9 | 0.0 | 0.00 | 0.00 | 0.00 | 55 | 1023.0 |
| 20260502064802 | 12 | 290 | 4.8 | 0.0 | 0.00 | 0.00 | 0.00 | 67 | 1023.0 |
| 20260502063302 | 12 | 290 | 4.8 | 0.0 | 0.00 | 0.00 | 0.00 | 67 | 1023.0 |
| 20260502061802 | 11 | 3.2 | 0.0 | 0.00 | 0.00 | 0.00 | 62 | 1023.0 | |
| 20260502060302 | 11 | 3.2 | 0.0 | 0.00 | 0.00 | 0.00 | 62 | 1023.0 | |
| 20260502054802 | 8 | 260 | 8.0 | 0.0 | 0.00 | 0.00 | 0.00 | 82 | 1023.0 |
| 20260502053302 | 8 | 260 | 8.0 | 0.0 | 0.00 | 0.00 | 0.00 | 82 | 1023.0 |
| 20260502051802 | 7 | 270 | 9.7 | 0.0 | 0.00 | 0.00 | 0.00 | 93 | 1023.0 |
| 20260502050301 | 7 | 270 | 9.7 | 0.0 | 0.00 | 0.00 | 0.00 | 93 | 1023.0 |
| 20260502044802 | 7 | 3.2 | 0.0 | 0.00 | 0.00 | 0.00 | 87 | 1023.0 | |
| 20260502043302 | 7 | 3.2 | 0.0 | 0.00 | 0.00 | 0.00 | 87 | 1023.0 | |
| 20260502041802 | 7 | 3.2 | 0.0 | 0.00 | 0.00 | 0.00 | 87 | 1023.0 | |
| 20260502040302 | 7 | 3.2 | 0.0 | 0.00 | 0.00 | 0.00 | 87 | 1023.0 | |
| 20260502034915 | 6 | 320 | 8.0 | 0.0 | 0.00 | 0.00 | 0.00 | 93 | 1023.0 |
| 20260502033301 | 6 | 320 | 8.0 | 0.0 | 0.00 | 0.00 | 0.00 | 93 | 1023.0 |
| 20260502031802 | 6 | 300 | 8.0 | 0.0 | 0.00 | 0.00 | 0.00 | 93 | 1023.0 |
| 20260502030302 | 6 | 300 | 8.0 | 0.0 | 0.00 | 0.00 | 0.00 | 93 | 1023.0 |
| 20260502024802 | 6 | 300 | 9.7 | 0.0 | 0.00 | 0.00 | 0.00 | 87 | 1023.0 |
| 20260502023302 | 6 | 300 | 9.7 | 0.0 | 0.00 | 0.00 | 0.00 | 87 | 1023.0 |
| 20260502021802 | 6 | 290 | 11.3 | 0.0 | 0.00 | 0.00 | 0.00 | 87 | 1023.0 |
| 20260502020302 | 6 | 290 | 11.3 | 0.0 | 0.00 | 0.00 | 0.00 | 87 | 1023.0 |
| 20260502014802 | 6 | 270 | 12.9 | 0.0 | 0.00 | 0.00 | 0.00 | 81 | 1023.0 |
| 20260502013302 | 6 | 270 | 12.9 | 0.0 | 0.00 | 0.00 | 0.00 | 81 | 1023.0 |
| 20260502011802 | 6 | 270 | 16.1 | 0.0 | 0.00 | 0.00 | 0.00 | 81 | 1023.0 |
| 20260502010302 | 6 | 270 | 16.1 | 0.0 | 0.00 | 0.00 | 0.00 | 81 | 1023.0 |
| 20260502004801 | 7 | 270 | 16.1 | 0.0 | 0.00 | 0.00 | 0.00 | 76 | 1023.0 |
| 20260502003302 | 7 | 270 | 16.1 | 0.0 | 0.00 | 0.00 | 0.00 | 76 | 1023.0 |
| 20260502001801 | 7 | 270 | 14.5 | 0.0 | 0.00 | 0.00 | 0.00 | 71 | 1024.0 |
| 20260502000302 | 7 | 270 | 14.5 | 0.0 | 0.00 | 0.00 | 0.00 | 71 | 1024.0 |
| 20260501234812 | 7 | 270 | 14.5 | 0.0 | 0.00 | 0.00 | 0.00 | 66 | 1024.0 |
| 20260501233302 | 7 | 270 | 14.5 | 0.0 | 0.00 | 0.00 | 0.00 | 66 | 1024.0 |